Year,Month,Day,Hour,Minute,Value (Times are PST for temperature in C)
2011,07,06,00,00,12.80
2011,07,06,00,01,12.80
2011,07,06,00,02,12.80
2011,07,06,00,03,12.80
2011,07,06,00,04,12.80
2011,07,06,00,05,12.80
2011,07,06,00,06,12.80
2011,07,06,00,07,12.80
2011,07,06,00,08,12.80
2011,07,06,00,09,12.80
2011,07,06,00,10,12.80
2011,07,06,00,11,12.80
2011,07,06,00,12,12.80
2011,07,06,00,13,12.80
2011,07,06,00,14,12.70
2011,07,06,00,15,12.70
2011,07,06,00,16,12.70
2011,07,06,00,17,12.70
2011,07,06,00,18,12.70
2011,07,06,00,19,12.70
2011,07,06,00,20,12.70
2011,07,06,00,21,12.70
2011,07,06,00,22,12.70
2011,07,06,00,23,12.70
2011,07,06,00,24,12.70
2011,07,06,00,25,12.70
2011,07,06,00,26,12.70
2011,07,06,00,27,12.70
2011,07,06,00,28,12.70
2011,07,06,00,29,12.70
2011,07,06,00,30,12.70
2011,07,06,00,31,12.70
2011,07,06,00,32,12.70
2011,07,06,00,33,12.70
2011,07,06,00,34,12.70
2011,07,06,00,35,12.70
2011,07,06,00,36,12.70
2011,07,06,00,37,12.80
2011,07,06,00,38,12.80
2011,07,06,00,39,12.80
2011,07,06,00,40,12.80
2011,07,06,00,41,12.80
2011,07,06,00,42,12.80
2011,07,06,00,43,12.80
2011,07,06,00,44,12.80
2011,07,06,00,45,12.80
2011,07,06,00,46,12.80
2011,07,06,00,47,12.80
2011,07,06,00,48,12.80
2011,07,06,00,49,12.70
2011,07,06,00,50,12.70
2011,07,06,00,51,12.70
2011,07,06,00,52,12.70
2011,07,06,00,53,12.70
2011,07,06,00,54,12.70
2011,07,06,00,55,12.70
2011,07,06,00,56,12.70
2011,07,06,00,57,12.70
2011,07,06,00,58,12.70
2011,07,06,00,59,12.70
2011,07,06,01,00,12.70
2011,07,06,01,01,12.60
2011,07,06,01,02,12.60
2011,07,06,01,03,12.60
2011,07,06,01,04,12.60
2011,07,06,01,05,12.60
2011,07,06,01,06,12.60
2011,07,06,01,07,12.60
2011,07,06,01,08,12.60
2011,07,06,01,09,12.60
2011,07,06,01,10,12.60
2011,07,06,01,11,12.60
2011,07,06,01,12,12.60
2011,07,06,01,13,12.60
2011,07,06,01,14,12.60
2011,07,06,01,15,12.60
2011,07,06,01,16,12.60
2011,07,06,01,17,12.60
2011,07,06,01,18,12.60
2011,07,06,01,19,12.60
2011,07,06,01,20,12.60
2011,07,06,01,21,12.60
2011,07,06,01,22,12.60
2011,07,06,01,23,12.60
2011,07,06,01,24,12.60
2011,07,06,01,25,12.60
2011,07,06,01,26,12.60
2011,07,06,01,27,12.60
2011,07,06,01,28,12.60
2011,07,06,01,29,12.60
2011,07,06,01,30,12.60
2011,07,06,01,31,12.60
2011,07,06,01,32,12.60
2011,07,06,01,33,12.60
2011,07,06,01,34,12.60
2011,07,06,01,35,12.60
2011,07,06,01,36,12.60
2011,07,06,01,37,12.60
2011,07,06,01,38,12.60
2011,07,06,01,39,12.60
2011,07,06,01,40,12.60
2011,07,06,01,41,12.60
2011,07,06,01,42,12.60
2011,07,06,01,43,12.70
2011,07,06,01,44,12.60
2011,07,06,01,45,12.70
2011,07,06,01,46,12.70
2011,07,06,01,47,12.60
2011,07,06,01,48,12.70
2011,07,06,01,49,12.70
2011,07,06,01,50,12.70
2011,07,06,01,51,12.70
2011,07,06,01,52,12.70
2011,07,06,01,53,12.70
2011,07,06,01,54,12.70
2011,07,06,01,55,12.70
2011,07,06,01,56,12.70
2011,07,06,01,57,12.70
2011,07,06,01,58,12.70
2011,07,06,01,59,12.70
2011,07,06,02,00,12.70
2011,07,06,02,01,12.70
2011,07,06,02,02,12.70
2011,07,06,02,03,12.70
2011,07,06,02,04,12.70
2011,07,06,02,05,12.70
2011,07,06,02,06,12.70
2011,07,06,02,07,12.70
2011,07,06,02,08,12.70
2011,07,06,02,09,12.70
2011,07,06,02,10,12.70
2011,07,06,02,11,12.70
2011,07,06,02,12,12.70
2011,07,06,02,13,12.70
2011,07,06,02,14,12.70
2011,07,06,02,15,12.70
2011,07,06,02,16,12.70
2011,07,06,02,17,12.70
2011,07,06,02,18,12.70
2011,07,06,02,19,12.70
2011,07,06,02,20,12.70
2011,07,06,02,21,12.70
2011,07,06,02,22,12.70
2011,07,06,02,23,12.70
2011,07,06,02,24,12.60
2011,07,06,02,25,12.60
2011,07,06,02,26,12.60
2011,07,06,02,27,12.60
2011,07,06,02,28,12.60
2011,07,06,02,29,12.60
2011,07,06,02,30,12.60
2011,07,06,02,31,12.60
2011,07,06,02,32,12.60
2011,07,06,02,33,12.60
2011,07,06,02,34,12.60
2011,07,06,02,35,12.60
2011,07,06,02,36,12.60
2011,07,06,02,37,12.60
2011,07,06,02,38,12.60
2011,07,06,02,39,12.60
2011,07,06,02,40,12.60
2011,07,06,02,41,12.60
2011,07,06,02,42,12.60
2011,07,06,02,43,12.60
2011,07,06,02,44,12.60
2011,07,06,02,45,12.60
2011,07,06,02,46,12.60
2011,07,06,02,47,12.60
2011,07,06,02,48,12.60
2011,07,06,02,49,12.60
2011,07,06,02,50,12.60
2011,07,06,02,51,12.60
2011,07,06,02,52,12.60
2011,07,06,02,53,12.60
2011,07,06,02,54,12.60
2011,07,06,02,55,12.60
2011,07,06,02,56,12.50
2011,07,06,02,57,12.50
2011,07,06,02,58,12.50
2011,07,06,02,59,12.50
2011,07,06,03,00,12.50
2011,07,06,03,01,12.50
2011,07,06,03,02,12.50
2011,07,06,03,06,12.40
2011,07,06,03,07,12.40
2011,07,06,03,08,12.40
2011,07,06,03,09,12.40
2011,07,06,03,10,12.40
2011,07,06,03,11,12.40
2011,07,06,03,12,12.40
2011,07,06,03,13,12.40
2011,07,06,03,14,12.40
2011,07,06,03,15,12.40
2011,07,06,03,16,12.40
2011,07,06,03,17,12.40
2011,07,06,03,18,12.40
2011,07,06,03,19,12.40
2011,07,06,03,20,12.40
2011,07,06,03,21,12.40
2011,07,06,03,22,12.40
2011,07,06,03,23,12.40
2011,07,06,03,24,12.40
2011,07,06,03,25,12.40
2011,07,06,03,26,12.40
2011,07,06,03,27,12.40
2011,07,06,03,28,12.40
2011,07,06,03,29,12.40
2011,07,06,03,30,12.40
2011,07,06,03,31,12.30
2011,07,06,03,32,12.30
2011,07,06,03,33,12.30
2011,07,06,03,34,12.30
2011,07,06,03,35,12.30
2011,07,06,03,36,12.30
2011,07,06,03,37,12.30
2011,07,06,03,38,12.30
2011,07,06,03,39,12.30
2011,07,06,03,40,12.30
2011,07,06,03,41,12.30
2011,07,06,03,42,12.30
2011,07,06,03,43,12.30
2011,07,06,03,44,12.30
2011,07,06,03,45,12.30
2011,07,06,03,46,12.30
2011,07,06,03,47,12.30
2011,07,06,03,48,12.30
2011,07,06,03,49,12.30
2011,07,06,03,50,12.30
2011,07,06,03,51,12.30
2011,07,06,03,52,12.30
2011,07,06,03,53,12.30
2011,07,06,03,54,12.30
2011,07,06,03,55,12.30
2011,07,06,03,56,12.40
2011,07,06,03,57,12.40
2011,07,06,03,58,12.40
2011,07,06,03,59,12.40
2011,07,06,04,00,12.40
2011,07,06,04,01,12.40
2011,07,06,04,02,12.40
2011,07,06,04,03,12.40
2011,07,06,04,04,12.40
2011,07,06,04,05,12.40
2011,07,06,04,06,12.40
2011,07,06,04,07,12.40
2011,07,06,04,08,12.40
2011,07,06,04,09,12.40
2011,07,06,04,10,12.30
2011,07,06,04,11,12.30
2011,07,06,04,12,12.30
2011,07,06,04,13,12.30
2011,07,06,04,14,12.30
2011,07,06,04,15,12.30
2011,07,06,04,16,12.30
2011,07,06,04,17,12.30
2011,07,06,04,18,12.30
2011,07,06,04,19,12.30
2011,07,06,04,20,12.30
2011,07,06,04,21,12.20
2011,07,06,04,22,12.20
2011,07,06,04,23,12.20
2011,07,06,04,24,12.20
2011,07,06,04,25,12.20
2011,07,06,04,26,12.20
2011,07,06,04,27,12.20
2011,07,06,04,28,12.20
2011,07,06,04,29,12.20
2011,07,06,04,30,12.20
2011,07,06,04,31,12.20
2011,07,06,04,32,12.20
2011,07,06,04,33,12.20
2011,07,06,04,34,12.30
2011,07,06,04,35,12.30
2011,07,06,04,36,12.30
2011,07,06,04,37,12.30
2011,07,06,04,38,12.30
2011,07,06,04,39,12.30
2011,07,06,04,40,12.30
2011,07,06,04,41,12.30
2011,07,06,04,42,12.20
2011,07,06,04,43,12.20
2011,07,06,04,44,12.20
2011,07,06,04,45,12.20
2011,07,06,04,46,12.20
2011,07,06,04,47,12.20
2011,07,06,04,48,12.20
2011,07,06,04,49,12.20
2011,07,06,04,50,12.20
2011,07,06,04,51,12.20
2011,07,06,04,52,12.20
2011,07,06,04,53,12.20
2011,07,06,04,54,12.20
2011,07,06,04,55,12.20
2011,07,06,04,56,12.20
2011,07,06,04,57,12.20
2011,07,06,04,58,12.10
2011,07,06,04,59,12.10
2011,07,06,05,00,12.10
2011,07,06,05,01,12.10
2011,07,06,05,02,12.10
2011,07,06,05,03,12.10
2011,07,06,05,04,12.10
2011,07,06,05,05,12.10
2011,07,06,05,06,12.10
2011,07,06,05,07,12.10
2011,07,06,05,08,12.10
2011,07,06,05,09,12.10
2011,07,06,05,10,12.10
2011,07,06,05,11,12.10
2011,07,06,05,12,12.10
2011,07,06,05,13,12.10
2011,07,06,05,14,12.10
2011,07,06,05,15,12.10
2011,07,06,05,16,12.10
2011,07,06,05,17,12.10
2011,07,06,05,18,12.10
2011,07,06,05,19,12.10
2011,07,06,05,20,12.00
2011,07,06,05,21,12.10
2011,07,06,05,22,12.10
2011,07,06,05,23,12.00
2011,07,06,05,24,12.00
2011,07,06,05,25,12.00
2011,07,06,05,26,12.00
2011,07,06,05,27,12.00
2011,07,06,05,28,12.00
2011,07,06,05,29,12.00
2011,07,06,05,30,12.00
2011,07,06,05,31,12.00
2011,07,06,05,32,12.00
2011,07,06,05,33,12.00
2011,07,06,05,34,12.00
2011,07,06,05,35,12.00
2011,07,06,05,36,12.00
2011,07,06,05,37,12.10
2011,07,06,05,38,12.00
2011,07,06,05,39,12.00
2011,07,06,05,40,12.00
2011,07,06,05,41,12.00
2011,07,06,05,42,12.00
2011,07,06,05,43,12.00
2011,07,06,05,44,12.00
2011,07,06,05,45,12.00
2011,07,06,05,46,11.90
2011,07,06,05,47,11.90
2011,07,06,05,48,11.90
2011,07,06,05,49,11.90
2011,07,06,05,50,11.90
2011,07,06,05,51,11.90
2011,07,06,05,52,11.90
2011,07,06,05,53,11.90
2011,07,06,05,54,11.90
2011,07,06,05,55,11.90
2011,07,06,05,56,11.90
2011,07,06,05,57,11.90
2011,07,06,05,58,11.80
2011,07,06,05,59,11.80
2011,07,06,06,00,11.80
2011,07,06,06,01,11.80
2011,07,06,06,02,11.80
2011,07,06,06,03,11.80
2011,07,06,06,04,11.80
2011,07,06,06,05,11.80
2011,07,06,06,06,11.80
2011,07,06,06,07,11.80
2011,07,06,06,08,11.80
2011,07,06,06,09,11.80
2011,07,06,06,10,11.80
2011,07,06,06,11,11.80
2011,07,06,06,12,11.90
2011,07,06,06,13,11.90
2011,07,06,06,14,11.90
2011,07,06,06,15,11.90
2011,07,06,06,16,11.90
2011,07,06,06,17,11.90
2011,07,06,06,18,11.80
2011,07,06,06,19,11.80
2011,07,06,06,20,11.80
2011,07,06,06,21,11.80
2011,07,06,06,22,11.80
2011,07,06,06,23,11.80
2011,07,06,06,24,11.80
2011,07,06,06,25,11.70
2011,07,06,06,26,11.70
2011,07,06,06,27,11.70
2011,07,06,06,28,11.70
2011,07,06,06,29,11.70
2011,07,06,06,30,11.70
2011,07,06,06,31,11.70
2011,07,06,06,32,11.70
2011,07,06,06,33,11.70
2011,07,06,06,34,11.70
2011,07,06,06,35,11.80
2011,07,06,06,36,11.80
2011,07,06,06,37,11.80
2011,07,06,06,38,11.80
2011,07,06,06,39,11.90
2011,07,06,06,40,11.90
2011,07,06,06,41,11.90
2011,07,06,06,42,11.90
2011,07,06,06,43,11.90
2011,07,06,06,44,11.90
2011,07,06,06,45,11.90
2011,07,06,06,46,11.90
2011,07,06,06,47,11.90
2011,07,06,06,48,11.90
2011,07,06,06,49,11.90
2011,07,06,06,50,11.90
2011,07,06,06,51,11.90
2011,07,06,06,52,11.90
2011,07,06,06,53,11.90
2011,07,06,06,54,11.90
2011,07,06,06,55,12.00
2011,07,06,06,56,12.00
2011,07,06,06,57,12.00
2011,07,06,06,58,12.00
2011,07,06,06,59,12.00
2011,07,06,07,00,12.00
2011,07,06,07,01,12.00
2011,07,06,07,02,12.00
2011,07,06,07,03,12.10
2011,07,06,07,04,12.00
2011,07,06,07,05,12.00
2011,07,06,07,06,11.90
2011,07,06,07,07,11.90
2011,07,06,07,08,11.90
2011,07,06,07,09,11.80
2011,07,06,07,10,11.80
2011,07,06,07,11,11.80
2011,07,06,07,12,11.90
2011,07,06,07,13,11.90
2011,07,06,07,14,11.90
2011,07,06,07,15,11.90
2011,07,06,07,16,11.90
2011,07,06,07,17,11.90
2011,07,06,07,18,11.90
2011,07,06,07,19,11.80
2011,07,06,07,20,11.80
2011,07,06,07,21,11.80
2011,07,06,07,22,11.80
2011,07,06,07,23,11.80
2011,07,06,07,24,11.80
2011,07,06,07,25,11.90
2011,07,06,07,26,11.90
2011,07,06,07,27,11.90
2011,07,06,07,28,11.90
2011,07,06,07,29,11.80
2011,07,06,07,30,11.80
2011,07,06,07,31,11.80
2011,07,06,07,32,11.90
2011,07,06,07,33,11.90
2011,07,06,07,34,11.90
2011,07,06,07,35,11.90
2011,07,06,07,36,11.90
2011,07,06,07,37,11.90
2011,07,06,07,38,12.00
2011,07,06,07,39,12.00
2011,07,06,07,40,12.00
2011,07,06,07,41,12.00
2011,07,06,07,42,12.10
2011,07,06,07,43,12.10
2011,07,06,07,44,12.20
2011,07,06,07,45,12.20
2011,07,06,07,46,12.10
2011,07,06,07,47,12.10
2011,07,06,07,48,12.10
2011,07,06,07,49,12.10
2011,07,06,07,50,12.10
2011,07,06,07,51,12.10
2011,07,06,07,52,12.10
2011,07,06,07,53,12.10
2011,07,06,07,54,12.00
2011,07,06,07,55,12.00
2011,07,06,07,56,11.90
2011,07,06,07,57,11.90
2011,07,06,07,58,11.80
2011,07,06,07,59,11.90
2011,07,06,08,00,11.90
2011,07,06,08,01,12.00
2011,07,06,08,02,12.00
2011,07,06,08,03,12.00
2011,07,06,08,04,12.10
2011,07,06,08,05,12.10
2011,07,06,08,06,12.10
2011,07,06,08,07,12.20
2011,07,06,08,08,12.20
2011,07,06,08,09,12.20
2011,07,06,08,10,12.20
2011,07,06,08,11,12.20
2011,07,06,08,12,12.20
2011,07,06,08,13,12.20
2011,07,06,08,14,12.20
2011,07,06,08,15,12.20
2011,07,06,08,16,12.20
2011,07,06,08,17,12.20
2011,07,06,08,18,12.30
2011,07,06,08,19,12.30
2011,07,06,08,20,12.40
2011,07,06,08,21,12.40
2011,07,06,08,22,12.40
2011,07,06,08,23,12.30
2011,07,06,08,24,12.30
2011,07,06,08,25,12.30
2011,07,06,08,26,12.30
2011,07,06,08,27,12.30
2011,07,06,08,28,12.30
2011,07,06,08,29,12.30
2011,07,06,08,30,12.30
2011,07,06,08,31,12.40
2011,07,06,08,32,12.40
2011,07,06,08,33,12.40
2011,07,06,08,34,12.50
2011,07,06,08,35,12.50
2011,07,06,08,36,12.60
2011,07,06,08,37,12.60
2011,07,06,08,38,12.60
2011,07,06,08,39,12.60
2011,07,06,08,40,12.70
2011,07,06,08,41,12.70
2011,07,06,08,42,12.70
2011,07,06,08,43,12.70
2011,07,06,08,44,12.70
2011,07,06,08,45,12.70
2011,07,06,08,46,12.70
2011,07,06,08,47,12.70
2011,07,06,08,48,12.80
2011,07,06,08,49,12.80
2011,07,06,08,50,12.80
2011,07,06,08,51,12.80
2011,07,06,08,52,12.90
2011,07,06,08,53,12.90
2011,07,06,08,54,12.90
2011,07,06,08,55,12.90
2011,07,06,08,56,12.90
2011,07,06,08,57,12.90
2011,07,06,08,58,12.90
2011,07,06,08,59,12.90
2011,07,06,09,00,12.90
2011,07,06,09,01,12.90
2011,07,06,09,02,12.90
2011,07,06,09,03,12.90
2011,07,06,09,04,13.00
2011,07,06,09,05,13.00
2011,07,06,09,06,12.90
2011,07,06,09,07,12.90
2011,07,06,09,08,12.90
2011,07,06,09,09,12.90
2011,07,06,09,10,12.90
2011,07,06,09,11,12.90
2011,07,06,09,12,12.90
2011,07,06,09,13,13.00
2011,07,06,09,14,13.00
2011,07,06,09,15,12.90
2011,07,06,09,16,12.90
2011,07,06,09,17,12.90
2011,07,06,09,18,12.90
2011,07,06,09,19,12.90
2011,07,06,09,20,12.90
2011,07,06,09,21,12.90
2011,07,06,09,22,12.90
2011,07,06,09,23,13.00
2011,07,06,09,24,13.10
2011,07,06,09,25,13.10
2011,07,06,09,26,13.20
2011,07,06,09,27,13.30
2011,07,06,09,28,13.40
2011,07,06,09,29,13.50
2011,07,06,09,30,13.60
2011,07,06,09,31,13.70
2011,07,06,09,32,13.70
2011,07,06,09,33,13.70
2011,07,06,09,34,13.70
2011,07,06,09,35,13.70
2011,07,06,09,36,13.70
2011,07,06,09,37,13.70
2011,07,06,09,38,13.70
2011,07,06,09,39,13.80
2011,07,06,09,40,13.90
2011,07,06,09,41,13.80
2011,07,06,09,42,13.70
2011,07,06,09,43,13.60
2011,07,06,09,44,13.60
2011,07,06,09,45,13.60
2011,07,06,09,46,13.70
2011,07,06,09,47,13.70
2011,07,06,09,48,13.80
2011,07,06,09,49,13.80
2011,07,06,09,50,13.80
2011,07,06,09,51,13.80
2011,07,06,09,52,13.90
2011,07,06,09,53,14.00
2011,07,06,09,54,14.10
2011,07,06,09,55,14.20
2011,07,06,09,56,14.10
2011,07,06,09,57,14.00
2011,07,06,09,58,14.00
2011,07,06,09,59,14.10
2011,07,06,10,00,14.10
2011,07,06,10,01,14.10
2011,07,06,10,02,14.10
2011,07,06,10,03,14.20
2011,07,06,10,04,14.30
2011,07,06,10,05,14.30
2011,07,06,10,06,14.30
2011,07,06,10,07,14.40
2011,07,06,10,08,14.30
2011,07,06,10,09,14.30
2011,07,06,10,10,14.30
2011,07,06,10,11,14.30
2011,07,06,10,12,14.20
2011,07,06,10,13,14.20
2011,07,06,10,14,14.20
2011,07,06,10,15,14.20
2011,07,06,10,16,14.20
2011,07,06,10,17,14.20
2011,07,06,10,18,14.20
2011,07,06,10,19,14.20
2011,07,06,10,20,14.30
2011,07,06,10,21,14.30
2011,07,06,10,22,14.30
2011,07,06,10,23,14.40
2011,07,06,10,24,14.40
2011,07,06,10,25,14.40
2011,07,06,10,26,14.40
2011,07,06,10,27,14.50
2011,07,06,10,28,14.60
2011,07,06,10,29,14.60
2011,07,06,10,30,14.60
2011,07,06,10,31,14.60
2011,07,06,10,32,14.70
2011,07,06,10,33,14.70
2011,07,06,10,34,14.80
2011,07,06,10,35,14.90
2011,07,06,10,36,14.90
2011,07,06,10,37,15.00
2011,07,06,10,38,15.10
2011,07,06,10,39,15.10
2011,07,06,10,40,15.10
2011,07,06,10,41,15.20
2011,07,06,10,42,15.30
2011,07,06,10,43,15.30
2011,07,06,10,44,15.40
2011,07,06,10,45,15.40
2011,07,06,10,46,15.40
2011,07,06,10,47,15.40
2011,07,06,10,48,15.50
2011,07,06,10,49,15.50
2011,07,06,10,50,15.60
2011,07,06,10,51,15.60
2011,07,06,10,52,15.70
2011,07,06,10,53,15.70
2011,07,06,10,54,15.60
2011,07,06,10,55,15.60
2011,07,06,10,56,15.60
2011,07,06,10,57,15.50
2011,07,06,10,58,15.50
2011,07,06,10,59,15.60
2011,07,06,11,00,15.60
2011,07,06,11,01,15.50
2011,07,06,11,02,15.50
2011,07,06,11,03,15.60
2011,07,06,11,04,15.60
2011,07,06,11,05,15.60
2011,07,06,11,06,15.70
2011,07,06,11,07,15.70
2011,07,06,11,08,15.70
2011,07,06,11,09,15.80
2011,07,06,11,10,15.80
2011,07,06,11,11,15.90
2011,07,06,11,12,16.00
2011,07,06,11,13,16.10
2011,07,06,11,14,16.20
2011,07,06,11,15,16.20
2011,07,06,11,16,16.20
2011,07,06,11,17,16.20
2011,07,06,11,18,16.20
2011,07,06,11,19,16.10
2011,07,06,11,20,16.00
2011,07,06,11,21,15.80
2011,07,06,11,22,15.70
2011,07,06,11,23,15.60
2011,07,06,11,24,15.50
2011,07,06,11,25,15.50
2011,07,06,11,26,15.50
2011,07,06,11,27,15.60
2011,07,06,11,28,15.60
2011,07,06,11,29,15.60
2011,07,06,11,30,15.60
2011,07,06,11,31,15.60
2011,07,06,11,32,15.60
2011,07,06,11,33,15.60
2011,07,06,11,34,15.70
2011,07,06,11,35,15.70
2011,07,06,11,36,15.70
2011,07,06,11,37,15.60
2011,07,06,11,38,15.60
2011,07,06,11,39,15.60
2011,07,06,11,40,15.60
2011,07,06,11,41,15.60
2011,07,06,11,42,15.60
2011,07,06,11,43,15.60
2011,07,06,11,44,15.50
2011,07,06,11,45,15.60
2011,07,06,11,46,15.50
2011,07,06,11,47,15.50
2011,07,06,11,48,15.50
2011,07,06,11,49,15.50
2011,07,06,11,50,15.50
2011,07,06,11,51,15.40
2011,07,06,11,52,15.40
2011,07,06,11,53,15.40
2011,07,06,11,54,15.30
2011,07,06,11,55,15.30
2011,07,06,11,56,15.40
2011,07,06,11,57,15.30
2011,07,06,11,58,15.30
2011,07,06,11,59,15.30
2011,07,06,12,00,15.30
2011,07,06,12,01,15.30
2011,07,06,12,02,15.20
2011,07,06,12,03,15.20
2011,07,06,12,04,15.20
2011,07,06,12,05,15.20
2011,07,06,12,06,15.30
2011,07,06,12,07,15.40
2011,07,06,12,08,15.40
2011,07,06,12,09,15.40
2011,07,06,12,10,15.50
2011,07,06,12,11,15.50
2011,07,06,12,12,15.60
2011,07,06,12,13,15.60
2011,07,06,12,14,15.60
2011,07,06,12,15,15.60
2011,07,06,12,16,15.70
2011,07,06,12,17,15.70
2011,07,06,12,18,15.70
2011,07,06,12,19,15.70
2011,07,06,12,20,15.70
2011,07,06,12,21,15.80
2011,07,06,12,22,15.80
2011,07,06,12,23,15.80
2011,07,06,12,24,15.70
2011,07,06,12,25,15.70
2011,07,06,12,26,15.70
2011,07,06,12,27,15.70
2011,07,06,12,28,15.80
2011,07,06,12,29,15.80
2011,07,06,12,30,15.90
2011,07,06,12,31,15.90
2011,07,06,12,32,15.90
2011,07,06,12,33,15.90
2011,07,06,12,34,15.90
2011,07,06,12,35,15.90
2011,07,06,12,36,15.90
2011,07,06,12,37,16.00
2011,07,06,12,38,16.00
2011,07,06,12,39,16.00
2011,07,06,12,40,16.00
2011,07,06,12,41,16.10
2011,07,06,12,42,16.10
2011,07,06,12,43,16.20
2011,07,06,12,44,16.20
2011,07,06,12,45,16.20
2011,07,06,12,46,16.20
2011,07,06,12,47,16.30
2011,07,06,12,48,16.30
2011,07,06,12,49,16.30
2011,07,06,12,50,16.40
2011,07,06,12,51,16.40
2011,07,06,12,52,16.50
2011,07,06,12,53,16.50
2011,07,06,12,54,16.60
2011,07,06,12,55,16.60
2011,07,06,12,56,16.70
2011,07,06,12,57,16.70
2011,07,06,12,58,16.70
2011,07,06,12,59,16.70
2011,07,06,13,00,16.70
2011,07,06,13,01,16.70
2011,07,06,13,02,16.70
2011,07,06,13,03,16.80
2011,07,06,13,04,16.80
2011,07,06,13,05,16.80
2011,07,06,13,06,16.80
2011,07,06,13,07,16.70
2011,07,06,13,08,16.70
2011,07,06,13,09,16.80
2011,07,06,13,10,16.90
2011,07,06,13,11,17.00
2011,07,06,13,12,17.20
2011,07,06,13,13,17.20
2011,07,06,13,14,17.10
2011,07,06,13,15,17.00
2011,07,06,13,16,17.00
2011,07,06,13,17,17.00
2011,07,06,13,18,16.90
2011,07,06,13,19,16.90
2011,07,06,13,20,16.90
2011,07,06,13,21,16.90
2011,07,06,13,22,17.00
2011,07,06,13,23,17.00
2011,07,06,13,24,17.10
2011,07,06,13,25,17.20
2011,07,06,13,26,17.20
2011,07,06,13,27,17.20
2011,07,06,13,28,17.10
2011,07,06,13,29,17.10
2011,07,06,13,30,17.00
2011,07,06,13,31,17.00
2011,07,06,13,32,16.90
2011,07,06,13,33,17.00
2011,07,06,13,34,17.00
2011,07,06,13,35,17.00
2011,07,06,13,36,17.00
2011,07,06,13,37,16.90
2011,07,06,13,38,17.00
2011,07,06,13,39,17.10
2011,07,06,13,40,17.10
2011,07,06,13,41,17.10
2011,07,06,13,42,17.00
2011,07,06,13,43,17.00
2011,07,06,13,44,16.90
2011,07,06,13,45,16.80
2011,07,06,13,46,16.70
2011,07,06,13,47,16.70
2011,07,06,13,48,16.70
2011,07,06,13,49,16.70
2011,07,06,13,50,16.70
2011,07,06,13,51,16.80
2011,07,06,13,52,16.80
2011,07,06,13,53,16.80
2011,07,06,13,54,16.80
2011,07,06,13,55,16.70
2011,07,06,13,56,16.70
2011,07,06,13,57,16.60
2011,07,06,13,58,16.60
2011,07,06,13,59,16.50
2011,07,06,14,00,16.50
2011,07,06,14,01,16.50
2011,07,06,14,02,16.50
2011,07,06,14,03,16.60
2011,07,06,14,04,16.60
2011,07,06,14,05,16.70
2011,07,06,14,06,16.70
2011,07,06,14,07,16.70
2011,07,06,14,08,16.70
2011,07,06,14,09,16.60
2011,07,06,14,10,16.60
2011,07,06,14,11,16.60
2011,07,06,14,12,16.70
2011,07,06,14,13,16.80
2011,07,06,14,14,16.90
2011,07,06,14,15,17.00
2011,07,06,14,16,17.10
2011,07,06,14,17,17.20
2011,07,06,14,18,17.20
2011,07,06,14,19,17.30
2011,07,06,14,20,17.40
2011,07,06,14,21,17.40
2011,07,06,14,22,17.40
2011,07,06,14,23,17.40
2011,07,06,14,24,17.40
2011,07,06,14,25,17.40
2011,07,06,14,26,17.40
2011,07,06,14,27,17.40
2011,07,06,14,28,17.40
2011,07,06,14,29,17.30
2011,07,06,14,30,17.30
2011,07,06,14,31,17.30
2011,07,06,14,32,17.40
2011,07,06,14,33,17.30
2011,07,06,14,34,17.40
2011,07,06,14,35,17.30
2011,07,06,14,36,17.30
2011,07,06,14,37,17.40
2011,07,06,14,38,17.40
2011,07,06,14,39,17.40
2011,07,06,14,40,17.40
2011,07,06,14,41,17.40
2011,07,06,14,42,17.40
2011,07,06,14,43,17.40
2011,07,06,14,44,17.40
2011,07,06,14,45,17.30
2011,07,06,14,46,17.30
2011,07,06,14,47,17.30
2011,07,06,14,48,17.30
2011,07,06,14,49,17.30
2011,07,06,14,50,17.30
2011,07,06,14,51,17.30
2011,07,06,14,52,17.40
2011,07,06,14,53,17.50
2011,07,06,14,54,17.50
2011,07,06,14,55,17.50
2011,07,06,14,56,17.60
2011,07,06,14,57,17.60
2011,07,06,14,58,17.70
2011,07,06,14,59,17.60
2011,07,06,15,00,17.60
2011,07,06,15,01,17.60
2011,07,06,15,02,17.60
2011,07,06,15,03,17.70
2011,07,06,15,04,17.80
2011,07,06,15,05,17.90
2011,07,06,15,06,18.00
2011,07,06,15,07,18.00
2011,07,06,15,08,17.90
2011,07,06,15,09,17.80
2011,07,06,15,10,17.70
2011,07,06,15,11,17.70
2011,07,06,15,12,17.70
2011,07,06,15,13,17.70
2011,07,06,15,14,17.70
2011,07,06,15,15,17.70
2011,07,06,15,16,17.60
2011,07,06,15,17,17.60
2011,07,06,15,18,17.60
2011,07,06,15,19,17.70
2011,07,06,15,20,17.70
2011,07,06,15,21,17.70
2011,07,06,15,22,17.70
2011,07,06,15,23,17.60
2011,07,06,15,24,17.50
2011,07,06,15,25,17.40
2011,07,06,15,26,17.20
2011,07,06,15,27,17.00
2011,07,06,15,28,17.00
2011,07,06,15,29,16.90
2011,07,06,15,30,16.90
2011,07,06,15,31,16.90
2011,07,06,15,32,16.90
2011,07,06,15,33,16.90
2011,07,06,15,34,16.90
2011,07,06,15,35,16.80
2011,07,06,15,36,16.80
2011,07,06,15,37,16.70
2011,07,06,15,38,16.60
2011,07,06,15,39,16.60
2011,07,06,15,40,16.60
2011,07,06,15,41,16.60
2011,07,06,15,42,16.60
2011,07,06,15,43,16.60
2011,07,06,15,44,16.60
2011,07,06,15,45,16.60
2011,07,06,15,46,16.70
2011,07,06,15,47,16.80
2011,07,06,15,48,16.80
2011,07,06,15,49,16.70
2011,07,06,15,50,16.70
2011,07,06,15,51,16.70
2011,07,06,15,52,16.70
2011,07,06,15,53,16.70
2011,07,06,15,54,16.70
2011,07,06,15,55,16.70
2011,07,06,15,56,16.70
2011,07,06,15,57,16.70
2011,07,06,15,58,16.80
2011,07,06,15,59,16.80
2011,07,06,16,00,16.80
2011,07,06,16,01,16.80
2011,07,06,16,02,16.90
2011,07,06,16,03,16.90
2011,07,06,16,04,16.90
2011,07,06,16,05,16.90
2011,07,06,16,06,17.00
2011,07,06,16,07,17.00
2011,07,06,16,08,17.00
2011,07,06,16,09,16.90
2011,07,06,16,10,16.90
2011,07,06,16,11,16.80
2011,07,06,16,12,16.80
2011,07,06,16,13,16.90
2011,07,06,16,14,16.90
2011,07,06,16,15,16.80
2011,07,06,16,16,16.70
2011,07,06,16,17,16.60
2011,07,06,16,18,16.60
2011,07,06,16,19,16.50
2011,07,06,16,20,16.40
2011,07,06,16,21,16.40
2011,07,06,16,22,16.40
2011,07,06,16,23,16.30
2011,07,06,16,24,16.30
2011,07,06,16,25,16.30
2011,07,06,16,26,16.30
2011,07,06,16,27,16.30
2011,07,06,16,28,16.40
2011,07,06,16,29,16.40
2011,07,06,16,30,16.40
2011,07,06,16,31,16.40
2011,07,06,16,32,16.40
2011,07,06,16,33,16.40
2011,07,06,16,34,16.40
2011,07,06,16,35,16.40
2011,07,06,16,36,16.40
2011,07,06,16,37,16.40
2011,07,06,16,38,16.40
2011,07,06,16,39,16.50
2011,07,06,16,40,16.50
2011,07,06,16,41,16.50
2011,07,06,16,42,16.60
2011,07,06,16,43,16.50
2011,07,06,16,44,16.50
2011,07,06,16,45,16.60
2011,07,06,16,46,16.60
2011,07,06,16,47,16.60
2011,07,06,16,48,16.70
2011,07,06,16,49,16.70
2011,07,06,16,50,16.80
2011,07,06,16,51,16.80
2011,07,06,16,52,16.80
2011,07,06,16,53,16.80
2011,07,06,16,54,16.80
2011,07,06,16,55,16.90
2011,07,06,16,56,16.90
2011,07,06,16,57,17.00
2011,07,06,16,58,17.10
2011,07,06,16,59,17.10
2011,07,06,17,00,17.10
2011,07,06,17,01,17.20
2011,07,06,17,02,17.20
2011,07,06,17,03,17.20
2011,07,06,17,04,17.20
2011,07,06,17,05,17.20
2011,07,06,17,06,17.20
2011,07,06,17,07,17.20
2011,07,06,17,08,17.20
2011,07,06,17,09,17.20
2011,07,06,17,10,17.20
2011,07,06,17,11,17.10
2011,07,06,17,12,17.00
2011,07,06,17,13,16.90
2011,07,06,17,14,16.80
2011,07,06,17,15,16.80
2011,07,06,17,16,16.70
2011,07,06,17,17,16.60
2011,07,06,17,18,16.60
2011,07,06,17,19,16.50
2011,07,06,17,20,16.40
2011,07,06,17,21,16.30
2011,07,06,17,22,16.30